Location: Newark
(44.2003°N, 3.2583°E)
Time: 01:26:11
(UTC+00:00)

SR - Pass Details

Date: 28 October 2019
Orbit: 574 x 882 km, 66.7° (Epoch: 18 November)

Event Time Altitude Azimuth Distance (km) Brightness Sun altitude
Rises 02:08:37 0° 334° (NNW) 3,422 - -44.1°
Reaches altitude 10° 02:12:48 10° 3° (N) 2,525 - -43.5°
Exits shadow 02:14:33 12° 20° (NNE) 2,370 ? -43.2°
Maximum altitude 02:15:14 13° 27° (NNE) 2,358 ? -43.1°
Drops below altitude 10° 02:17:41 10° 52° (NE) 2,545 ? -42.7°
Sets 02:21:55 0° 80° (E) 3,479 ? -42.0°
